sat.trackr.live / text

‹ back to catalog

STARLINK-36900

NORAD 67973 · 2026-038N

PAYLOAD ACTIVE UNKNOWN

§ Identity

Operator
Country
US
Launch date
2026-02-25
Launch site
AFWTR
Launch vehicle
Mass (kg)
RCS (m²)

Purposes: comms

External: N2YO · Heavens-Above · Gunter

§ Orbital elements

Epoch: 2026-05-24T23:47:22.970976Z

Period
93.91 min
Inclination
97.2824°
Eccentricity
0.0002969
Mean motion
15.33456546 rev/d
Perigee alt
463.5 km
Apogee alt
467.5 km
Semi-major
6,843.6 km
B*
4.4929e-4
RAAN
155.0344°
Arg perigee
103.5186°
Mean anomaly
256.6388°
Rev number
1,493

§ Raw data

STARLINK-369001 67973U 26038N   26144.99123809  .00014464  00000+0  44929-3 0  99982 67973  97.2824 155.0344 0002969 103.5186 256.6388 15.33456546 14935

JSON: /api/v1/satellites/67973 · /tle

For live sub-satellite position, see the globe view (requires WebGL).

§ Visibility from observer

Set your observer location to see the next 7 days of passes ≥ 10°. The values pass through the URL so the page stays shareable.

No JS? Fill the form by hand. The geolocation button needs JavaScript.